Location: Hylvaty SDH
(49.9612°N, 16.4057°E)
Time: 12:44:57
(UTC+01:00)

Tiros 1 - Pass Details

Date: 05 October 2020
Orbit: 630 x 663 km, 48.4° (Epoch: 28 October)

Event Time Altitude Azimuth Distance (km) Brightness Sun altitude
Rises 13:11:54 0° 223° (SW) 2,925 11.2 34.7°
Reaches altitude 10° 13:14:23 10° 213° (SSW) 2,024 10.8 34.6°
Maximum altitude 13:18:32 32° 150° (SSE) 1,094 9.5 34.5°
Drops below altitude 10° 13:22:44 10° 87° (E) 2,051 9.7 34.3°
Sets 13:25:16 0° 78° (ENE) 2,971 10.3 34.3°
